Precipitable_Water
0.47 0.39 0.37 0.40 0.44 0.47 0.51 0.51 0.49 0.49 0.48 0.47 0.47 0.44 0.41 0.42 0.43 0.55 0.62 0.71 0.83 0.73 0.68 0.72 0.73 0.72 0.75 0.82 0.94 1.04 1.10 1.07 1.07 1.05 1.06 1.09 1.12 1.15 1.18 1.18 1.21 1.22 1.27 1.44 1.49 1.53 1.53 1.54 1.58 1.60 1.61 1.60 1.62 1.64 1.63 1.58 1.58 1.63 1.63 1.59 1.54 1.59 1.62 1.62 1.61 1.58 1.53 1.46 1.43 1.48 1.47 1.47 1.53 1.53 1.53 1.51 1.52 1.55 1.58 1.60 1.62 1.63 1.62 1.60 1.56 1.54
0.41 0.35 0.36 0.41 0.45 0.46 0.48 0.50 0.50 0.48 0.48 0.45 0.43 0.41 0.39 0.40 0.37 0.45 0.52 0.70 0.82 0.67 0.66 0.75 0.72 0.70 0.75 0.84 0.94 1.06 1.04 0.97 1.00 1.01 1.02 1.07 1.12 1.15 1.18 1.19 1.21 1.27 1.41 1.47 1.45 1.52 1.53 1.54 1.58 1.59 1.58 1.58 1.51 1.57 1.59 1.53 1.56 1.59 1.61 1.58 1.55 1.58 1.57 1.58 1.61 1.56 1.51 1.50 1.45 1.42 1.42 1.44 1.43 1.44 1.43 1.43 1.48 1.53 1.58 1.58 1.56 1.55 1.54 1.53 1.53 1.53
0.32 0.31 0.36 0.42 0.46 0.47 0.48 0.49 0.49 0.46 0.44 0.44 0.41 0.40 0.37 0.37 0.41 0.53 0.58 0.68 0.76 0.70 0.65 0.73 0.66 0.68 0.75 0.83 0.95 0.98 0.96 0.99 1.05 1.05 1.03 1.07 1.10 1.13 1.19 1.22 1.25 1.29 1.34 1.43 1.48 1.50 1.51 1.51 1.53 1.57 1.57 1.56 1.59 1.58 1.60 1.61 1.59 1.58 1.58 1.59 1.57 1.56 1.57 1.59 1.61 1.54 1.49 1.49 1.50 1.46 1.41 1.39 1.37 1.43 1.43 1.44 1.48 1.51 1.48 1.47 1.45 1.46 1.46 1.46 1.44 1.44
0.27 0.30 0.38 0.43 0.45 0.44 0.45 0.46 0.45 0.44 0.43 0.42 0.41 0.38 0.34 0.39 0.38 0.35 0.58 0.68 0.74 0.68 0.64 0.70 0.65 0.68 0.77 0.83 0.87 0.98 1.01 1.01 1.07 1.10 1.10 1.12 1.11 1.13 1.17 1.23 1.25 1.29 1.34 1.37 1.44 1.46 1.50 1.51 1.51 1.55 1.55 1.54 1.56 1.54 1.57 1.60 1.60 1.60 1.60 1.59 1.58 1.56 1.57 1.58 1.59 1.54 1.53 1.51 1.49 1.47 1.45 1.43 1.39 1.35 1.41 1.44 1.45 1.43 1.37 1.32 1.38 1.39 1.40 1.38 1.35 1.34
0.26 0.31 0.44 0.44 0.44 0.44 0.41 0.42 0.41 0.40 0.39 0.41 0.41 0.39 0.36 0.36 0.39 0.39 0.51 0.65 0.73 0.75 0.74 0.73 0.66 0.64 0.70 0.67 0.73 0.89 1.03 1.03 1.03 1.07 1.10 1.14 1.19 1.24 1.28 1.29 1.33 1.32 1.36 1.39 1.44 1.47 1.48 1.47 1.48 1.51 1.56 1.57 1.51 1.51 1.53 1.58 1.60 1.61 1.60 1.61 1.61 1.58 1.57 1.57 1.57 1.54 1.53 1.49 1.45 1.45 1.44 1.43 1.39 1.40 1.39 1.35 1.31 1.31 1.31 1.31 1.31 1.32 1.35 1.33 1.29 1.26
0.24 0.33 0.40 0.39 0.40 0.40 0.39 0.38 0.40 0.39 0.36 0.39 0.41 0.40 0.39 0.38 0.40 0.47 0.58 0.58 0.57 0.55 0.68 0.63 0.47 0.47 0.61 0.64 0.67 0.79 0.88 0.91 1.00 0.98 0.99 1.06 1.13 1.20 1.20 1.24 1.33 1.38 1.45 1.43 1.43 1.46 1.49 1.46 1.50 1.52 1.54 1.54 1.52 1.50 1.55 1.62 1.64 1.63 1.60 1.60 1.59 1.59 1.58 1.55 1.55 1.56 1.52 1.47 1.42 1.37 1.31 1.27 1.27 1.25 1.24 1.18 1.17 1.20 1.21 1.23 1.31 1.33 1.32 1.29 1.23 1.19
0.23 0.32 0.36 0.35 0.36 0.36 0.36 0.37 0.40 0.39 0.36 0.35 0.39 0.42 0.40 0.41 0.44 0.50 0.54 0.55 0.46 0.39 0.57 0.68 0.43 0.37 0.56 0.55 0.62 0.71 0.78 0.83 0.93 0.93 0.97 1.03 1.09 1.14 1.17 1.24 1.28 1.32 1.38 1.48 1.50 1.51 1.47 1.49 1.47 1.49 1.50 1.54 1.52 1.54 1.60 1.63 1.65 1.65 1.61 1.58 1.56 1.55 1.53 1.54 1.55 1.55 1.53 1.47 1.44 1.39 1.34 1.30 1.24 1.19 1.21 1.25 1.26 1.24 1.27 1.31 1.28 1.28 1.29 1.24 1.18 1.14
0.22 0.25 0.30 0.32 0.32 0.32 0.33 0.34 0.38 0.38 0.36 0.34 0.43 0.42 0.43 0.43 0.43 0.46 0.49 0.48 0.46 0.57 0.63 0.63 0.57 0.42 0.39 0.49 0.63 0.73 0.72 0.75 0.80 0.87 0.93 1.00 1.05 1.09 1.16 1.23 1.27 1.32 1.38 1.42 1.45 1.48 1.50 1.51 1.48 1.44 1.52 1.57 1.58 1.60 1.61 1.61 1.64 1.62 1.60 1.57 1.54 1.53 1.53 1.55 1.55 1.54 1.52 1.45 1.41 1.34 1.29 1.28 1.24 1.19 1.16 1.21 1.24 1.29 1.30 1.27 1.26 1.26 1.24 1.23 1.20 1.15
0.20 0.20 0.23 0.25 0.27 0.28 0.30 0.35 0.39 0.39 0.35 0.37 0.42 0.42 0.40 0.41 0.43 0.48 0.48 0.48 0.50 0.46 0.42 0.51 0.61 0.46 0.39 0.48 0.64 0.70 0.62 0.66 0.71 0.79 0.88 0.95 1.02 1.08 1.14 1.21 1.27 1.34 1.40 1.44 1.44 1.45 1.48 1.50 1.50 1.53 1.54 1.61 1.62 1.62 1.59 1.60 1.62 1.63 1.61 1.57 1.54 1.53 1.53 1.52 1.51 1.47 1.43 1.38 1.34 1.32 1.29 1.21 1.20 1.21 1.22 1.26 1.27 1.24 1.26 1.23 1.25 1.22 1.21 1.19 1.16 1.13
0.18 0.19 0.22 0.24 0.25 0.25 0.32 0.36 0.37 0.36 0.33 0.39 0.42 0.42 0.43 0.46 0.49 0.52 0.50 0.49 0.50 0.43 0.35 0.43 0.54 0.39 0.37 0.47 0.53 0.65 0.61 0.60 0.65 0.76 0.85 0.92 0.99 1.07 1.11 1.18 1.26 1.35 1.41 1.47 1.49 1.50 1.53 1.57 1.56 1.61 1.64 1.63 1.63 1.65 1.65 1.64 1.64 1.63 1.59 1.54 1.52 1.49 1.47 1.46 1.43 1.41 1.40 1.39 1.37 1.28 1.21 1.17 1.18 1.22 1.23 1.24 1.20 1.20 1.21 1.16 1.16 1.17 1.14 1.12 1.08 1.04
0.17 0.21 0.25 0.23 0.23 0.26 0.31 0.33 0.34 0.35 0.36 0.40 0.40 0.39 0.41 0.45 0.47 0.51 0.52 0.51 0.47 0.37 0.35 0.45 0.51 0.46 0.32 0.40 0.48 0.48 0.52 0.58 0.69 0.77 0.85 0.94 1.01 1.07 1.13 1.17 1.22 1.30 1.37 1.43 1.48 1.52 1.56 1.61 1.61 1.65 1.60 1.61 1.63 1.65 1.66 1.65 1.64 1.62 1.57 1.51 1.45 1.43 1.44 1.45 1.43 1.42 1.39 1.36 1.29 1.22 1.23 1.22 1.20 1.21 1.21 1.19 1.18 1.18 1.14 1.09 1.09 1.09 1.07 1.04 0.98 0.97
0.16 0.17 0.17 0.20 0.25 0.27 0.30 0.29 0.33 0.37 0.38 0.37 0.36 0.36 0.37 0.39 0.48 0.47 0.48 0.49 0.37 0.32 0.39 0.46 0.50 0.54 0.35 0.35 0.48 0.60 0.71 0.72 0.74 0.73 0.79 0.87 0.95 1.01 1.09 1.16 1.24 1.31 1.36 1.42 1.47 1.50 1.55 1.57 1.60 1.64 1.59 1.59 1.60 1.63 1.63 1.64 1.63 1.57 1.54 1.46 1.41 1.42 1.44 1.45 1.44 1.40 1.35 1.31 1.30 1.31 1.31 1.28 1.26 1.25 1.24 1.21 1.17 1.16 1.10 1.09 1.07 1.08 1.02 0.97 0.97 0.95
0.13 0.14 0.17 0.18 0.25 0.25 0.28 0.26 0.29 0.34 0.35 0.34 0.35 0.36 0.31 0.29 0.31 0.30 0.38 0.31 0.31 0.29 0.40 0.46 0.48 0.46 0.42 0.40 0.50 0.64 0.69 0.75 0.81 0.81 0.83 0.87 0.95 1.02 1.08 1.15 1.25 1.34 1.38 1.40 1.46 1.51 1.53 1.53 1.56 1.59 1.58 1.58 1.58 1.58 1.63 1.62 1.60 1.54 1.49 1.46 1.43 1.42 1.43 1.40 1.37 1.34 1.32 1.32 1.35 1.33 1.32 1.30 1.30 1.29 1.29 1.26 1.20 1.16 1.09 1.08 1.04 1.00 0.95 0.95 0.91 0.88
0.15 0.17 0.17 0.17 0.19 0.24 0.26 0.23 0.25 0.28 0.32 0.32 0.32 0.34 0.30 0.26 0.25 0.22 0.26 0.30 0.31 0.35 0.43 0.41 0.51 0.38 0.45 0.47 0.61 0.64 0.74 0.81 0.86 0.90 0.93 0.94 0.96 1.02 1.09 1.18 1.28 1.36 1.39 1.42 1.48 1.53 1.55 1.56 1.60 1.62 1.58 1.57 1.59 1.59 1.61 1.62 1.57 1.54 1.50 1.47 1.42 1.39 1.41 1.40 1.38 1.37 1.36 1.37 1.36 1.36 1.34 1.32 1.31 1.30 1.30 1.26 1.18 1.13 1.09 1.05 1.00 0.95 0.91 0.87 0.83 0.78
0.12 0.12 0.15 0.15 0.14 0.20 0.22 0.23 0.27 0.28 0.30 0.32 0.36 0.35 0.33 0.29 0.25 0.23 0.25 0.22 0.24 0.28 0.38 0.53 0.40 0.35 0.31 0.37 0.69 0.74 0.83 0.86 0.92 0.98 1.00 1.02 1.05 1.10 1.17 1.23 1.30 1.33 1.38 1.45 1.50 1.54 1.56 1.58 1.62 1.62 1.58 1.57 1.58 1.60 1.62 1.55 1.53 1.53 1.48 1.44 1.40 1.39 1.39 1.38 1.39 1.41 1.40 1.41 1.40 1.38 1.36 1.32 1.31 1.29 1.29 1.25 1.19 1.11 1.06 1.03 0.97 0.92 0.87 0.81 0.76 0.71
0.14 0.13 0.16 0.19 0.19 0.20 0.19 0.24 0.27 0.29 0.30 0.34 0.36 0.37 0.31 0.30 0.35 0.26 0.28 0.27 0.26 0.29 0.32 0.40 0.32 0.43 0.36 0.66 0.74 0.82 0.87 0.86 0.92 0.96 1.00 1.00 1.05 1.10 1.13 1.17 1.22 1.30 1.37 1.46 1.51 1.56 1.58 1.61 1.63 1.63 1.58 1.57 1.57 1.60 1.56 1.50 1.52 1.51 1.48 1.46 1.43 1.41 1.42 1.44 1.43 1.42 1.41 1.39 1.36 1.33 1.29 1.28 1.27 1.26 1.24 1.19 1.15 1.11 1.07 1.00 0.94 0.87 0.83 0.76 0.70 0.67
0.16 0.13 0.19 0.21 0.20 0.18 0.19 0.24 0.26 0.30 0.24 0.32 0.32 0.28 0.30 0.37 0.34 0.31 0.31 0.32 0.32 0.29 0.28 0.46 0.39 0.44 0.59 0.60 0.70 0.78 0.78 0.82 0.90 0.93 0.95 0.97 1.03 1.09 1.10 1.16 1.23 1.30 1.39 1.46 1.51 1.55 1.57 1.60 1.62 1.60 1.57 1.57 1.58 1.57 1.51 1.50 1.53 1.50 1.49 1.46 1.42 1.42 1.43 1.41 1.43 1.41 1.40 1.37 1.31 1.28 1.25 1.22 1.19 1.18 1.14 1.10 1.07 1.04 1.00 0.93 0.85 0.80 0.76 0.72 0.68 0.65
0.14 0.15 0.20 0.19 0.18 0.19 0.21 0.24 0.27 0.29 0.30 0.30 0.27 0.31 0.37 0.38 0.36 0.30 0.23 0.26 0.25 0.23 0.26 0.39 0.33 0.34 0.35 0.24 0.64 0.68 0.68 0.78 0.85 0.89 0.93 0.98 1.04 1.04 1.10 1.17 1.24 1.30 1.39 1.48 1.53 1.57 1.58 1.63 1.62 1.58 1.56 1.60 1.62 1.58 1.54 1.57 1.57 1.54 1.51 1.45 1.41 1.40 1.39 1.42 1.40 1.39 1.36 1.31 1.25 1.20 1.17 1.17 1.17 1.14 1.10 1.06 1.00 0.95 0.85 0.78 0.75 0.74 0.70 0.67 0.66 0.64
0.20 0.15 0.18 0.20 0.19 0.21 0.21 0.22 0.22 0.26 0.29 0.27 0.30 0.40 0.31 0.27 0.25 0.29 0.26 0.20 0.19 0.19 0.21 0.31 0.37 0.34 0.35 0.31 0.51 0.57 0.62 0.70 0.80 0.88 0.91 0.93 0.98 1.03 1.10 1.18 1.26 1.34 1.39 1.44 1.48 1.53 1.62 1.66 1.61 1.54 1.62 1.68 1.68 1.67 1.63 1.60 1.57 1.55 1.53 1.50 1.45 1.41 1.42 1.42 1.41 1.38 1.32 1.26 1.21 1.17 1.16 1.15 1.12 1.08 1.02 0.97 0.89 0.78 0.70 0.68 0.68 0.67 0.66 0.66 0.65 0.63
0.22 0.15 0.16 0.21 0.20 0.21 0.21 0.20 0.17 0.21 0.29 0.32 0.34 0.32 0.36 0.30 0.27 0.24 0.25 0.26 0.24 0.21 0.22 0.23 0.33 0.24 0.42 0.46 0.55 0.59 0.67 0.72 0.79 0.84 0.88 0.94 1.00 1.06 1.11 1.17 1.23 1.29 1.36 1.42 1.47 1.52 1.54 1.57 1.58 1.62 1.63 1.64 1.64 1.66 1.63 1.58 1.58 1.56 1.54 1.50 1.48 1.47 1.45 1.41 1.36 1.30 1.24 1.22 1.18 1.15 1.15 1.12 1.08 1.01 0.92 0.80 0.69 0.64 0.63 0.63 0.63 0.62 0.61 0.61 0.62 0.60
0.20 0.21 0.15 0.18 0.22 0.21 0.15 0.17 0.19 0.23 0.23 0.24 0.26 0.28 0.30 0.28 0.31 0.28 0.29 0.26 0.24 0.24 0.23 0.23 0.21 0.26 0.41 0.60 0.61 0.66 0.72 0.78 0.82 0.84 0.92 0.97 1.04 1.10 1.15 1.20 1.25 1.31 1.38 1.43 1.48 1.49 1.49 1.56 1.63 1.67 1.68 1.68 1.68 1.65 1.62 1.60 1.60 1.59 1.57 1.51 1.47 1.42 1.39 1.35 1.31 1.26 1.21 1.18 1.15 1.13 1.09 1.06 0.99 0.88 0.76 0.64 0.61 0.59 0.60 0.61 0.60 0.60 0.60 0.60 0.58 0.58
0.19 0.18 0.17 0.18 0.18 0.17 0.20 0.21 0.25 0.25 0.26 0.24 0.23 0.24 0.26 0.25 0.23 0.22 0.22 0.34 0.31 0.26 0.25 0.24 0.21 0.28 0.50 0.72 0.72 0.75 0.81 0.84 0.92 0.93 0.95 1.01 1.07 1.12 1.18 1.25 1.30 1.34 1.41 1.46 1.48 1.49 1.56 1.59 1.60 1.62 1.69 1.72 1.67 1.58 1.56 1.60 1.58 1.56 1.52 1.47 1.44 1.40 1.33 1.28 1.24 1.20 1.17 1.15 1.12 1.09 1.05 0.97 0.85 0.71 0.63 0.58 0.58 0.57 0.57 0.56 0.57 0.59 0.59 0.56 0.56 0.55
0.22 0.21 0.19 0.17 0.18 0.19 0.22 0.23 0.27 0.28 0.27 0.27 0.26 0.25 0.28 0.27 0.27 0.24 0.20 0.24 0.35 0.34 0.40 0.35 0.27 0.28 0.65 0.79 0.80 0.81 0.86 0.92 0.98 1.02 1.04 1.09 1.13 1.18 1.24 1.29 1.36 1.41 1.43 1.46 1.45 1.49 1.54 1.57 1.60 1.57 1.58 1.57 1.58 1.58 1.58 1.56 1.51 1.49 1.48 1.44 1.38 1.30 1.27 1.25 1.20 1.17 1.15 1.12 1.08 1.03 0.94 0.81 0.69 0.63 0.59 0.56 0.56 0.54 0.54 0.53 0.54 0.55 0.53 0.52 0.52 0.53
0.24 0.19 0.17 0.18 0.21 0.23 0.25 0.26 0.28 0.28 0.28 0.27 0.28 0.29 0.29 0.26 0.27 0.26 0.26 0.30 0.29 0.36 0.33 0.36 0.29 0.33 0.62 0.85 0.87 0.90 0.96 1.02 1.08 1.11 1.12 1.14 1.19 1.24 1.27 1.31 1.36 1.41 1.45 1.47 1.48 1.47 1.57 1.61 1.53 1.51 1.46 1.48 1.57 1.53 1.51 1.48 1.49 1.48 1.44 1.35 1.30 1.27 1.24 1.20 1.17 1.15 1.12 1.07 0.99 0.90 0.78 0.69 0.64 0.60 0.58 0.57 0.56 0.54 0.53 0.51 0.50 0.52 0.51 0.52 0.52 0.51
0.17 0.20 0.19 0.17 0.18 0.19 0.21 0.24 0.26 0.33 0.37 0.36 0.32 0.34 0.32 0.31 0.31 0.34 0.36 0.41 0.29 0.34 0.36 0.29 0.24 0.30 0.60 0.88 0.92 0.95 0.98 1.00 1.05 1.14 1.19 1.17 1.23 1.27 1.31 1.36 1.40 1.42 1.45 1.46 1.43 1.43 1.47 1.45 1.40 1.46 1.47 1.52 1.56 1.51 1.49 1.44 1.42 1.39 1.36 1.28 1.23 1.20 1.19 1.16 1.15 1.10 1.04 0.96 0.84 0.76 0.70 0.65 0.61 0.59 0.58 0.56 0.55 0.52 0.51 0.51 0.53 0.53 0.51 0.53 0.52 0.51
0.18 0.21 0.18 0.16 0.15 0.15 0.15 0.16 0.19 0.23 0.28 0.36 0.39 0.40 0.36 0.32 0.33 0.32 0.28 0.31 0.25 0.36 0.39 0.31 0.31 0.42 0.67 0.83 0.87 0.92 0.97 1.00 1.08 1.14 1.20 1.25 1.26 1.27 1.30 1.35 1.39 1.46 1.44 1.41 1.40 1.37 1.41 1.42 1.52 1.51 1.49 1.48 1.48 1.45 1.42 1.40 1.37 1.32 1.25 1.19 1.18 1.15 1.14 1.12 1.09 1.02 0.94 0.83 0.73 0.70 0.66 0.61 0.60 0.58 0.56 0.55 0.54 0.52 0.51 0.52 0.53 0.52 0.51 0.51 0.48 0.48
0.20 0.24 0.21 0.20 0.18 0.17 0.18 0.20 0.23 0.27 0.30 0.31 0.34 0.39 0.37 0.40 0.40 0.36 0.35 0.29 0.25 0.38 0.35 0.38 0.37 0.41 0.54 0.69 0.76 0.86 0.93 0.95 1.00 1.08 1.12 1.18 1.24 1.28 1.32 1.34 1.35 1.35 1.37 1.38 1.35 1.37 1.38 1.38 1.46 1.42 1.45 1.43 1.42 1.43 1.39 1.34 1.28 1.24 1.19 1.15 1.14 1.12 1.09 1.05 1.00 0.91 0.79 0.73 0.70 0.65 0.59 0.59 0.58 0.58 0.57 0.56 0.55 0.55 0.53 0.53 0.53 0.52 0.50 0.50 0.48 0.47
0.22 0.22 0.22 0.22 0.21 0.24 0.24 0.23 0.25 0.29 0.30 0.33 0.33 0.35 0.41 0.41 0.42 0.38 0.33 0.31 0.38 0.36 0.31 0.41 0.48 0.42 0.50 0.63 0.74 0.81 0.90 0.97 1.03 1.08 1.14 1.19 1.23 1.26 1.30 1.34 1.35 1.35 1.34 1.33 1.32 1.32 1.29 1.29 1.28 1.34 1.34 1.35 1.35 1.34 1.30 1.25 1.22 1.17 1.12 1.08 1.07 1.05 1.01 0.96 0.86 0.78 0.73 0.70 0.63 0.57 0.56 0.59 0.61 0.61 0.60 0.60 0.58 0.55 0.53 0.53 0.53 0.53 0.53 0.51 0.48 0.48
0.24 0.20 0.23 0.23 0.26 0.31 0.29 0.28 0.29 0.32 0.37 0.40 0.41 0.40 0.41 0.45 0.41 0.37 0.37 0.42 0.41 0.33 0.31 0.40 0.49 0.46 0.57 0.68 0.80 0.89 0.96 0.99 1.05 1.12 1.19 1.24 1.27 1.29 1.30 1.28 1.27 1.25 1.26 1.23 1.26 1.29 1.29 1.23 1.24 1.27 1.28 1.29 1.25 1.20 1.18 1.16 1.12 1.09 1.08 1.07 1.02 0.97 0.90 0.85 0.78 0.73 0.69 0.62 0.56 0.55 0.58 0.62 0.64 0.65 0.63 0.61 0.58 0.55 0.53 0.52 0.53 0.53 0.52 0.50 0.49 0.51
0.27 0.25 0.28 0.32 0.33 0.34 0.37 0.36 0.39 0.35 0.39 0.42 0.44 0.46 0.47 0.43 0.42 0.42 0.43 0.49 0.46 0.43 0.45 0.45 0.51 0.53 0.66 0.74 0.87 0.97 1.07 1.11 1.15 1.22 1.23 1.21 1.21 1.25 1.25 1.22 1.18 1.19 1.20 1.21 1.23 1.25 1.25 1.28 1.22 1.22 1.25 1.27 1.21 1.15 1.11 1.07 1.05 1.04 1.02 0.97 0.92 0.85 0.80 0.77 0.71 0.65 0.59 0.55 0.55 0.57 0.61 0.63 0.64 0.65 0.64 0.62 0.58 0.55 0.53 0.52 0.52 0.52 0.50 0.49 0.50 0.53
0.26 0.30 0.37 0.38 0.33 0.35 0.40 0.43 0.44 0.43 0.40 0.39 0.46 0.47 0.47 0.48 0.47 0.49 0.49 0.52 0.52 0.48 0.53 0.52 0.50 0.51 0.75 0.91 0.96 1.07 1.13 1.17 1.16 1.12 1.14 1.18 1.21 1.21 1.17 1.14 1.13 1.17 1.21 1.21 1.23 1.25 1.23 1.22 1.23 1.24 1.23 1.20 1.12 1.08 1.03 1.03 1.03 1.01 0.95 0.88 0.80 0.76 0.74 0.71 0.63 0.57 0.56 0.54 0.56 0.59 0.61 0.62 0.64 0.66 0.64 0.63 0.61 0.57 0.54 0.53 0.52 0.50 0.50 0.51 0.53 0.55
0.31 0.32 0.41 0.38 0.30 0.33 0.42 0.42 0.47 0.48 0.44 0.41 0.43 0.45 0.46 0.46 0.43 0.49 0.47 0.56 0.47 0.44 0.51 0.51 0.45 0.49 0.73 0.93 1.01 1.06 1.09 1.08 1.04 1.07 1.10 1.15 1.18 1.16 1.11 1.10 1.11 1.15 1.16 1.17 1.22 1.22 1.19 1.21 1.22 1.19 1.15 1.10 1.06 1.04 1.03 1.01 0.98 0.93 0.81 0.76 0.72 0.71 0.70 0.64 0.58 0.55 0.56 0.58 0.58 0.59 0.61 0.62 0.65 0.65 0.65 0.64 0.61 0.60 0.57 0.55 0.52 0.51 0.52 0.54 0.56 0.58
0.32 0.32 0.33 0.32 0.27 0.31 0.42 0.46 0.44 0.43 0.41 0.36 0.39 0.48 0.52 0.54 0.56 0.58 0.60 0.62 0.59 0.60 0.47 0.44 0.46 0.66 0.78 0.92 0.89 0.97 1.02 1.03 1.05 1.07 1.09 1.13 1.15 1.14 1.11 1.09 1.13 1.13 1.13 1.20 1.19 1.17 1.17 1.18 1.18 1.14 1.10 1.05 1.03 1.03 1.02 0.98 0.87 0.75 0.70 0.68 0.68 0.68 0.63 0.59 0.59 0.58 0.57 0.59 0.58 0.59 0.61 0.62 0.64 0.65 0.64 0.64 0.63 0.63 0.61 0.57 0.54 0.52 0.54 0.54 0.58 0.60
0.35 0.35 0.34 0.36 0.27 0.35 0.43 0.43 0.46 0.38 0.28 0.31 0.57 0.66 0.61 0.53 0.55 0.49 0.50 0.57 0.64 0.69 0.61 0.67 0.69 0.80 0.86 0.90 0.88 0.90 0.93 0.99 1.05 1.13 1.18 1.13 1.10 1.10 1.10 1.13 1.13 1.13 1.16 1.19 1.18 1.19 1.19 1.18 1.15 1.10 1.06 1.03 1.03 1.01 0.98 0.88 0.76 0.69 0.68 0.66 0.65 0.60 0.59 0.60 0.59 0.58 0.57 0.59 0.59 0.60 0.63 0.63 0.64 0.64 0.65 0.66 0.65 0.64 0.62 0.60 0.56 0.56 0.59 0.59 0.59 0.59
0.34 0.34 0.33 0.36 0.31 0.33 0.43 0.44 0.35 0.25 0.28 0.52 0.68 0.72 0.71 0.66 0.65 0.61 0.62 0.66 0.69 0.74 0.72 0.68 0.73 0.78 0.88 0.94 0.99 1.02 1.05 1.12 1.15 1.14 1.15 1.18 1.14 1.11 1.08 1.08 1.10 1.14 1.20 1.21 1.20 1.18 1.15 1.12 1.10 1.05 1.04 1.02 1.00 0.95 0.84 0.76 0.70 0.65 0.63 0.60 0.57 0.59 0.58 0.58 0.55 0.56 0.56 0.56 0.58 0.62 0.65 0.64 0.64 0.63 0.65 0.67 0.65 0.63 0.62 0.61 0.59 0.59 0.61 0.62 0.61 0.61
0.36 0.34 0.36 0.37 0.41 0.44 0.39 0.38 0.24 0.27 0.49 0.63 0.70 0.74 0.77 0.74 0.71 0.63 0.56 0.64 0.72 0.72 0.72 0.66 0.76 0.84 0.91 0.96 1.04 1.11 1.09 1.12 1.14 1.17 1.17 1.17 1.17 1.14 1.09 1.08 1.14 1.20 1.21 1.24 1.19 1.14 1.11 1.10 1.07 1.05 1.03 1.03 0.95 0.82 0.75 0.67 0.65 0.60 0.55 0.57 0.56 0.57 0.56 0.54 0.53 0.53 0.54 0.53 0.55 0.59 0.63 0.64 0.62 0.63 0.64 0.65 0.64 0.62 0.62 0.61 0.61 0.62 0.65 0.67 0.66 0.67
0.38 0.39 0.37 0.36 0.46 0.35 0.38 0.36 0.32 0.52 0.48 0.57 0.58 0.61 0.61 0.54 0.56 0.50 0.40 0.54 0.74 0.79 0.75 0.71 0.78 0.85 0.90 0.98 1.05 1.09 1.12 1.09 0.98 1.01 1.16 1.16 1.18 1.19 1.17 1.20 1.27 1.26 1.27 1.25 1.21 1.15 1.17 1.14 1.11 1.09 1.05 0.95 0.83 0.74 0.69 0.64 0.60 0.54 0.53 0.53 0.54 0.54 0.52 0.51 0.50 0.51 0.53 0.52 0.54 0.57 0.61 0.62 0.60 0.58 0.60 0.60 0.60 0.59 0.61 0.62 0.62 0.65 0.70 0.66 0.66 0.65
0.43 0.34 0.41 0.33 0.41 0.46 0.36 0.34 0.34 0.35 0.28 0.39 0.55 0.68 0.75 0.76 0.73 0.70 0.54 0.51 0.75 0.80 0.84 0.79 0.78 0.84 0.89 0.97 1.02 1.07 1.07 0.88 0.74 0.83 1.05 1.14 1.19 1.18 1.27 1.32 1.32 1.28 1.23 1.20 1.17 1.17 1.17 1.17 1.14 1.09 0.98 0.86 0.75 0.70 0.64 0.58 0.54 0.53 0.51 0.51 0.51 0.50 0.49 0.49 0.48 0.51 0.53 0.54 0.56 0.57 0.58 0.58 0.58 0.56 0.56 0.56 0.56 0.58 0.62 0.66 0.69 0.69 0.71 0.67 0.66 0.66
0.44 0.42 0.40 0.35 0.40 0.42 0.39 0.33 0.32 0.27 0.32 0.49 0.56 0.67 0.78 0.80 0.77 0.76 0.51 0.41 0.68 0.80 0.86 0.88 0.85 0.90 0.89 0.89 0.95 1.00 0.85 0.64 0.67 0.80 1.02 1.10 1.13 1.24 1.30 1.27 1.27 1.22 1.17 1.16 1.14 1.15 1.17 1.15 1.10 1.00 0.88 0.76 0.67 0.63 0.59 0.56 0.54 0.51 0.48 0.49 0.48 0.49 0.47 0.48 0.50 0.53 0.54 0.56 0.58 0.59 0.60 0.61 0.60 0.58 0.56 0.55 0.57 0.61 0.64 0.68 0.69 0.71 0.72 0.71 0.70 0.69
0.39 0.40 0.39 0.36 0.36 0.38 0.37 0.33 0.32 0.38 0.39 0.53 0.64 0.71 0.79 0.83 0.78 0.62 0.35 0.39 0.65 0.86 0.90 0.93 0.90 0.90 0.93 0.95 0.94 0.87 0.72 0.60 0.66 0.82 1.04 1.11 1.16 1.24 1.23 1.18 1.13 1.12 1.09 1.14 1.19 1.22 1.20 1.15 1.02 0.86 0.75 0.69 0.62 0.57 0.56 0.56 0.53 0.49 0.48 0.48 0.48 0.46 0.46 0.48 0.51 0.54 0.56 0.57 0.58 0.60 0.61 0.61 0.59 0.57 0.56 0.57 0.61 0.65 0.68 0.70 0.71 0.70 0.70 0.70 0.70 0.69
0.36 0.37 0.37 0.33 0.35 0.39 0.39 0.39 0.44 0.46 0.61 0.72 0.73 0.80 0.82 0.83 0.70 0.44 0.35 0.51 0.76 0.88 0.94 0.95 0.93 0.94 0.95 0.92 0.92 0.75 0.86 0.88 0.91 1.01 1.09 1.15 1.13 1.14 1.17 1.16 1.15 1.14 1.11 1.13 1.16 1.20 1.11 1.00 0.86 0.73 0.70 0.64 0.56 0.56 0.57 0.55 0.52 0.49 0.48 0.47 0.46 0.45 0.48 0.52 0.54 0.55 0.55 0.57 0.57 0.58 0.59 0.60 0.59 0.57 0.60 0.62 0.64 0.67 0.69 0.71 0.70 0.71 0.70 0.69 0.70 0.70
0.38 0.39 0.41 0.41 0.36 0.36 0.41 0.38 0.40 0.51 0.70 0.81 0.84 0.83 0.86 0.67 0.45 0.42 0.61 0.83 0.89 0.90 0.97 0.96 0.93 0.98 0.98 0.94 0.92 0.91 0.95 1.01 1.04 1.07 1.07 1.10 1.09 1.11 1.12 1.09 1.12 1.18 1.24 1.20 1.15 1.08 0.95 0.82 0.74 0.70 0.64 0.57 0.56 0.57 0.56 0.55 0.52 0.50 0.47 0.45 0.44 0.48 0.54 0.56 0.57 0.58 0.58 0.57 0.57 0.56 0.57 0.58 0.60 0.62 0.63 0.65 0.67 0.66 0.66 0.69 0.71 0.71 0.71 0.71 0.71 0.70
0.45 0.37 0.34 0.35 0.43 0.46 0.46 0.41 0.39 0.34 0.65 0.84 0.84 0.79 0.84 0.56 0.62 0.78 0.89 0.95 1.00 0.97 0.93 0.96 0.97 1.00 1.01 0.95 0.99 0.98 0.98 1.01 1.01 1.02 1.05 1.10 1.09 1.05 1.05 1.06 1.06 1.06 1.07 1.07 1.02 0.94 0.81 0.71 0.65 0.60 0.54 0.55 0.57 0.57 0.57 0.56 0.52 0.49 0.46 0.44 0.46 0.53 0.57 0.58 0.59 0.59 0.59 0.59 0.60 0.60 0.58 0.58 0.60 0.62 0.65 0.66 0.68 0.68 0.67 0.69 0.69 0.69 0.71 0.71 0.70 0.70
0.66 0.42 0.44 0.47 0.53 0.41 0.39 0.35 0.37 0.53 0.74 0.90 0.81 0.64 0.77 0.78 0.92 0.98 0.96 0.91 1.02 1.01 0.97 0.96 1.00 1.03 1.02 0.97 0.93 0.94 0.98 0.98 0.99 1.02 1.04 1.05 1.04 1.04 1.06 1.06 1.04 1.03 1.02 1.00 0.90 0.79 0.70 0.63 0.59 0.54 0.54 0.56 0.57 0.57 0.58 0.56 0.51 0.48 0.46 0.44 0.50 0.55 0.58 0.60 0.60 0.61 0.59 0.59 0.60 0.61 0.62 0.62 0.62 0.63 0.66 0.67 0.68 0.68 0.67 0.68 0.69 0.69 0.70 0.70 0.70 0.69
0.65 0.57 0.62 0.49 0.63 0.52 0.47 0.56 0.72 0.82 0.85 0.93 0.91 0.92 0.97 1.03 1.08 1.08 0.99 0.92 0.90 0.98 1.06 0.96 0.94 1.01 1.02 0.98 0.95 0.94 0.93 0.97 0.97 1.00 0.94 0.95 0.98 1.00 1.00 1.01 1.02 0.98 0.92 0.84 0.77 0.71 0.65 0.57 0.54 0.54 0.54 0.55 0.56 0.58 0.58 0.57 0.51 0.47 0.46 0.48 0.53 0.55 0.57 0.58 0.60 0.60 0.59 0.59 0.60 0.61 0.62 0.64 0.64 0.64 0.65 0.67 0.67 0.66 0.66 0.67 0.68 0.67 0.69 0.70 0.69 0.69
0.80 0.80 0.80 0.68 0.64 0.79 0.84 0.83 0.88 0.88 0.92 0.96 1.03 1.07 1.04 1.04 1.08 1.06 0.98 0.92 0.99 1.00 1.00 0.93 0.96 0.99 0.99 1.00 0.92 0.94 0.95 0.96 0.91 0.93 0.95 0.95 0.94 0.97 1.00 0.99 0.95 0.90 0.84 0.76 0.69 0.63 0.58 0.55 0.55 0.53 0.52 0.53 0.56 0.56 0.58 0.56 0.51 0.47 0.47 0.52 0.55 0.56 0.58 0.59 0.58 0.58 0.59 0.61 0.62 0.63 0.64 0.63 0.64 0.65 0.67 0.68 0.70 0.70 0.71 0.70 0.70 0.70 0.72 0.73 0.72 0.71
0.81 0.82 0.73 0.61 0.78 0.63 0.56 0.82 0.83 0.87 0.96 1.00 1.00 1.05 1.05 1.05 1.03 1.03 0.97 0.95 0.95 0.99 0.99 1.01 1.01 0.99 1.00 0.95 0.96 0.94 0.93 0.92 0.89 0.92 0.93 0.92 0.91 0.93 0.93 0.89 0.85 0.79 0.72 0.65 0.62 0.58 0.55 0.55 0.52 0.50 0.50 0.49 0.54 0.56 0.57 0.53 0.53 0.54 0.53 0.55 0.57 0.58 0.58 0.58 0.57 0.57 0.59 0.60 0.62 0.64 0.64 0.64 0.64 0.65 0.66 0.67 0.69 0.70 0.70 0.72 0.72 0.71 0.71 0.72 0.71 0.71
0.66 0.90 0.71 0.70 0.72 0.64 0.67 0.84 0.91 0.96 1.00 1.01 1.01 0.96 0.93 0.97 1.01 1.03 1.01 1.00 1.00 1.02 1.03 1.03 1.07 1.01 1.00 0.96 0.97 0.95 0.87 0.89 0.86 0.87 0.86 0.85 0.83 0.85 0.82 0.79 0.74 0.70 0.66 0.63 0.61 0.58 0.56 0.53 0.48 0.48 0.49 0.48 0.52 0.56 0.55 0.53 0.55 0.57 0.58 0.58 0.59 0.60 0.60 0.58 0.57 0.55 0.56 0.58 0.60 0.61 0.63 0.63 0.65 0.66 0.66 0.67 0.67 0.65 0.66 0.68 0.70 0.69 0.67 0.68 0.69 0.68
0.83 0.87 0.65 0.77 0.68 0.78 0.84 0.88 0.92 0.97 0.96 0.99 1.03 1.02 1.01 1.00 0.97 0.98 1.00 1.00 1.01 1.00 1.03 1.07 1.08 1.00 0.97 0.96 0.97 0.89 0.81 0.83 0.86 0.81 0.79 0.80 0.79 0.77 0.75 0.74 0.71 0.67 0.63 0.61 0.60 0.58 0.53 0.51 0.49 0.50 0.49 0.50 0.54 0.55 0.54 0.53 0.56 0.57 0.58 0.59 0.59 0.59 0.58 0.58 0.60 0.60 0.58 0.58 0.58 0.58 0.63 0.65 0.68 0.69 0.68 0.68 0.69 0.70 0.70 0.68 0.68 0.68 0.69 0.74 0.76 0.75
0.76 0.67 0.82 0.77 0.67 0.67 0.70 0.80 0.89 0.74 0.76 0.89 0.98 1.03 1.03 1.05 1.02 0.99 1.01 1.00 1.01 0.99 1.01 0.96 0.97 1.04 1.01 0.94 0.89 0.84 0.76 0.77 0.80 0.78 0.73 0.75 0.73 0.73 0.73 0.72 0.67 0.63 0.61 0.62 0.62 0.58 0.55 0.53 0.52 0.51 0.51 0.51 0.55 0.55 0.54 0.55 0.56 0.57 0.59 0.60 0.62 0.62 0.59 0.61 0.62 0.60 0.60 0.61 0.61 0.61 0.64 0.68 0.71 0.73 0.72 0.71 0.70 0.71 0.73 0.79 0.80 0.77 0.74 0.73 0.78 0.80
0.73 0.80 0.79 0.72 0.70 0.70 0.84 0.91 0.96 0.93 0.91 0.95 0.98 1.05 1.08 1.08 1.03 0.96 0.95 0.97 1.01 1.03 1.01 0.94 0.91 0.92 0.92 0.92 0.92 0.82 0.74 0.73 0.73 0.77 0.72 0.71 0.71 0.72 0.71 0.67 0.62 0.60 0.60 0.61 0.59 0.58 0.53 0.53 0.54 0.52 0.51 0.52 0.55 0.56 0.57 0.56 0.55 0.56 0.59 0.61 0.64 0.63 0.61 0.62 0.60 0.59 0.60 0.62 0.63 0.65 0.66 0.67 0.70 0.72 0.71 0.71 0.70 0.70 0.70 0.70 0.76 0.80 0.79 0.77 0.76 0.77
Wind_Speed
13 13 13 13 12 10 10 9 7 6 6 5 6 7 7 8 8 7 6 7 6 4 6 6 4 3 2 2 2 1 0 1 2 2 3 3 3 3 4 4 4 5 6 7 7 8 8 9 9 9 9 9 9 9 8 7 6 6 5 5 4 4 4 3 3 3 4 5 5 6 6 7 8 8 9 9 10 10 11 11 11 11 11 11 11 12
15 15 15 15 14 12 12 11 8 7 6 6 7 8 8 8 8 7 5 6 6 5 6 5 5 5 4 3 2 2 1 2 3 2 3 3 3 3 3 3 4 5 5 6 7 7 8 9 9 9 9 9 9 9 8 7 6 6 5 5 5 5 4 4 4 4 5 5 6 6 7 7 8 9 10 10 11 11 11 12 12 12 11 11 12 12
17 18 17 16 15 12 11 11 9 8 8 7 7 7 9 8 7 7 6 4 5 6 6 5 5 6 5 4 3 4 4 4 5 5 5 4 3 4 3 3 4 4 5 5 6 7 7 8 8 9 9 9 9 9 8 7 7 6 5 5 5 5 5 5 5 5 5 5 6 6 7 7 8 9 10 11 11 11 12 12 12 12 12 12 12 13
18 18 17 16 14 12 11 11 9 9 8 7 7 8 9 8 7 7 6 4 4 5 5 5 5 6 6 5 5 6 6 5 5 6 6 5 4 4 4 4 4 4 4 4 5 7 7 8 8 9 9 9 9 9 8 7 7 6 6 5 5 5 5 5 5 5 5 6 6 7 7 8 8 9 10 11 12 12 12 12 12 12 12 12 12 13
21 19 17 15 14 13 13 12 10 9 9 9 9 8 9 8 6 6 5 4 4 4 5 4 4 7 6 6 7 6 6 6 6 6 6 6 6 5 4 4 4 4 4 4 5 6 7 8 8 9 9 9 9 9 9 8 7 7 6 6 5 5 5 5 5 6 6 7 7 8 9 9 10 10 11 11 12 13 12 12 12 12 12 13 13 14
21 20 19 17 16 14 13 13 11 10 10 10 9 9 10 8 5 3 3 3 4 6 7 5 4 7 7 8 9 7 6 7 6 6 6 6 6 5 5 5 5 5 5 5 6 6 8 8 8 9 9 9 9 9 9 8 8 7 6 6 6 5 5 6 6 7 7 8 9 9 10 11 11 11 12 12 13 13 12 12 12 12 13 14 15 16
20 19 19 18 17 16 15 15 13 11 10 10 10 9 8 6 3 3 4 4 5 6 8 7 6 7 8 9 9 8 7 8 7 7 7 6 7 7 6 6 5 5 6 6 6 7 8 8 9 9 10 9 9 9 9 9 8 7 7 6 6 6 6 7 7 7 8 9 9 10 11 11 12 12 12 12 13 13 12 12 12 13 14 15 16 17
18 18 19 18 17 17 16 15 14 12 10 11 11 8 6 5 4 6 6 6 6 5 6 7 7 7 9 9 8 7 7 9 8 7 7 7 8 7 6 6 6 6 6 6 7 7 8 9 9 9 10 9 9 8 8 8 8 7 7 7 7 7 7 8 8 8 9 9 10 10 11 11 12 12 12 13 13 13 12 12 13 14 15 16 17 18
17 18 20 20 19 19 18 16 15 13 12 13 12 8 8 7 6 7 7 7 7 5 5 8 8 7 10 10 7 5 7 10 9 8 7 8 8 7 6 6 6 6 7 7 7 8 9 9 9 9 9 9 9 8 8 8 8 7 7 8 8 8 8 8 8 8 9 10 10 11 11 12 12 12 13 13 13 13 13 13 14 15 16 18 19 19
17 18 20 20 19 20 19 18 16 15 13 13 10 7 8 6 6 7 7 7 7 7 8 10 9 8 10 11 8 6 8 10 9 7 7 8 8 7 6 6 6 7 7 7 8 9 9 9 9 9 9 9 9 8 8 8 8 8 8 8 8 8 8 8 8 9 9 10 11 11 12 12 12 13 13 13 14 14 14 14 15 16 17 18 19 20
15 16 18 19 20 20 20 19 17 16 15 13 9 7 7 7 7 7 8 7 6 8 10 10 11 9 9 10 9 8 8 8 6 6 7 8 8 7 7 7 7 7 7 8 9 9 9 9 9 8 8 9 9 9 8 8 9 8 8 8 8 8 8 8 8 9 9 10 11 11 12 12 12 13 13 14 14 14 15 16 17 17 18 19 20 20
13 15 17 18 20 20 18 18 17 15 14 13 10 9 8 8 8 7 8 7 7 10 11 10 10 10 10 11 9 9 9 8 6 7 8 8 8 7 7 7 7 7 7 8 9 9 9 9 8 8 9 9 9 9 9 8 8 8 8 8 7 7 8 8 9 9 10 10 11 11 12 12 12 13 14 14 14 15 16 17 18 18 19 20 20 20
13 15 15 16 19 20 19 18 17 15 14 13 12 10 9 9 8 7 9 9 10 12 11 11 10 10 12 12 10 10 11 9 8 8 8 9 9 8 7 7 7 7 8 9 9 10 10 9 8 8 9 9 9 10 9 8 8 8 8 7 7 7 8 9 9 10 11 11 11 12 12 13 13 13 14 14 15 16 17 18 19 20 20 20 20 20
12 13 13 14 18 20 20 19 18 16 15 14 13 12 10 8 7 9 10 10 11 12 11 11 10 10 12 11 10 11 12 12 11 10 9 8 8 7 7 7 7 8 8 9 10 10 10 9 8 8 9 9 10 10 9 8 8 8 7 7 7 8 8 9 9 10 11 11 12 12 13 13 14 14 14 15 16 17 18 19 20 20 20 20 20 20
11 11 12 14 16 18 21 21 20 18 16 15 14 12 12 11 9 11 11 10 10 10 9 9 9 9 10 10 10 11 13 14 12 9 8 7 6 6 6 7 8 8 9 10 10 11 11 10 8 8 9 10 10 10 9 9 9 8 7 7 8 8 8 9 10 10 11 11 12 13 13 14 15 15 15 16 17 18 19 20 21 21 21 20 20 20
11 12 12 12 13 16 19 20 19 17 16 16 15 13 13 13 12 12 12 11 10 9 9 10 11 11 11 11 11 10 12 12 10 7 6 6 6 6 6 7 8 9 10 10 11 11 11 10 9 8 9 9 9 9 9 10 9 7 6 7 8 8 9 9 10 11 11 11 12 13 14 15 15 15 16 17 18 19 20 21 21 21 20 20 20 20
10 12 11 10 11 14 17 18 17 17 16 15 15 15 15 13 12 12 12 11 10 11 12 12 12 13 13 13 12 10 11 10 8 7 5 6 6 6 7 8 9 10 10 11 11 12 13 11 8 8 8 8 8 9 9 9 8 7 7 8 8 8 8 9 10 10 11 12 13 14 15 16 16 17 17 18 19 20 21 22 22 21 20 20 20 21
10 11 11 9 10 13 16 17 16 17 16 14 15 16 14 13 11 11 11 10 10 12 13 13 14 15 13 13 12 11 10 10 9 7 6 7 7 7 8 8 9 10 10 11 12 14 14 11 8 8 9 9 9 9 8 8 8 7 7 8 7 7 9 9 10 10 11 13 13 14 15 16 17 18 19 19 20 21 22 22 21 20 20 20 21 21
10 10 11 9 9 10 12 15 16 16 15 14 15 14 13 13 13 12 11 10 10 11 12 13 14 14 14 13 13 12 12 11 9 8 8 8 8 8 9 9 9 10 10 12 13 15 13 10 9 9 9 9 9 8 8 8 7 6 7 7 7 8 9 9 10 11 12 14 14 15 16 17 18 19 20 21 22 22 22 22 21 20 20 21 21 21
10 9 9 8 7 8 10 13 15 15 14 13 13 14 14 13 13 12 12 11 11 11 11 11 12 12 13 13 12 12 12 11 10 9 10 10 10 9 9 9 10 10 11 12 14 15 12 10 9 9 9 10 8 8 8 7 6 6 6 7 8 9 10 10 10 12 13 14 15 16 17 18 19 20 21 22 22 22 22 21 21 20 20 20 20 21
10 10 10 9 8 8 9 12 15 16 14 13 13 14 14 12 12 12 12 11 10 10 10 10 11 12 12 12 12 12 11 10 9 10 10 10 10 9 9 9 10 10 11 12 14 14 12 10 9 8 10 10 8 7 7 6 5 6 7 8 9 9 10 10 12 13 14 15 16 17 18 19 20 21 22 22 21 21 21 20 20 20 20 20 20 21
10 10 10 10 8 8 10 11 13 14 14 13 13 14 13 12 12 11 12 12 11 10 10 10 11 13 13 11 12 11 10 9 9 10 10 10 10 9 9 9 9 10 11 12 13 13 12 10 8 8 9 9 8 7 6 5 6 7 8 9 10 10 11 12 13 14 15 16 17 18 19 20 21 21 21 21 21 21 20 20 20 20 20 20 21 21
10 9 10 11 10 10 11 11 12 13 12 12 13 13 13 12 12 12 13 13 11 10 10 10 11 13 13 12 12 12 9 8 8 9 9 9 9 8 8 8 9 11 11 12 13 13 12 9 7 7 8 8 8 6 5 6 7 8 9 10 10 11 12 13 14 15 16 17 18 19 20 21 21 21 21 21 21 21 21 20 20 20 20 20 20 20
9 9 9 10 9 9 10 9 10 11 10 11 12 12 12 13 12 12 12 11 10 10 10 9 11 13 13 12 11 10 8 7 7 7 7 7 8 8 8 9 10 11 11 11 12 12 10 8 7 7 8 8 7 5 5 7 8 8 10 10 11 11 12 13 15 16 17 18 19 20 20 21 21 21 21 21 21 21 21 20 20 20 19 19 19 19
9 9 9 7 7 7 7 6 7 8 8 9 11 11 11 11 10 10 10 9 9 11 9 8 10 12 11 9 8 7 6 5 6 6 6 7 7 8 8 9 10 11 10 10 10 11 10 8 7 7 7 6 6 6 7 8 8 9 10 10 11 12 13 14 15 17 18 19 19 20 20 21 20 20 20 20 20 20 19 19 19 18 17 17 16 16
9 9 9 9 8 7 7 7 8 8 8 8 8 7 8 9 9 9 9 8 9 10 8 7 9 10 8 7 6 6 6 6 6 6 6 7 7 7 8 8 9 10 9 9 9 10 10 8 5 5 6 6 7 8 8 8 8 9 10 11 12 13 14 15 16 18 18 19 19 19 20 20 20 20 20 19 19 19 18 17 17 16 15 15 15 15
7 7 9 10 10 9 9 9 9 8 8 8 7 5 6 7 9 8 7 8 9 8 8 9 8 7 7 6 6 6 7 6 7 7 7 7 7 7 7 7 8 9 9 9 9 9 9 7 5 5 6 7 7 8 8 9 9 10 11 12 13 14 15 16 17 18 18 18 19 19 19 19 19 19 19 18 18 17 16 16 15 15 15 14 14 14
6 7 8 8 8 9 9 9 8 7 8 8 7 6 6 6 7 7 7 8 7 5 8 10 7 6 8 7 6 7 7 7 7 7 7 7 7 7 7 6 7 7 8 8 8 8 8 7 6 6 6 7 7 7 8 9 10 11 12 13 14 15 15 16 17 17 18 18 18 18 18 18 18 18 17 16 16 16 15 15 15 14 14 14 14 14
6 6 8 7 6 6 6 7 8 6 7 8 6 6 7 6 6 7 7 7 6 5 8 9 6 6 8 7 7 8 7 7 7 6 6 6 6 5 6 6 6 7 7 7 7 7 7 7 7 7 7 7 7 7 8 9 10 11 13 14 14 15 15 16 17 17 18 18 18 18 17 17 17 16 15 15 15 15 15 14 14 14 14 13 13 13
6 5 6 6 5 4 4 6 7 7 7 7 6 6 6 5 5 6 6 6 5 5 7 7 5 7 9 8 7 7 7 6 6 6 6 6 5 5 6 6 7 7 7 7 7 7 7 7 7 7 7 7 7 8 9 10 11 12 13 13 14 15 16 17 17 17 17 17 16 16 16 15 15 15 15 15 15 14 14 14 14 14 13 13 13 13
6 6 6 5 5 5 5 5 6 6 6 6 5 5 5 4 4 4 5 6 5 6 7 6 6 9 10 8 7 6 6 6 6 6 6 6 5 5 6 7 7 7 6 6 6 6 6 6 7 7 7 7 8 9 10 11 12 12 12 13 14 15 16 16 16 16 16 15 15 14 14 14 14 14 14 14 14 14 13 13 13 13 13 13 13 13
5 6 6 4 4 6 6 5 5 5 5 5 4 4 4 5 5 6 6 7 7 7 7 7 8 9 9 7 6 6 6 6 6 6 6 6 6 6 6 7 7 6 6 6 6 7 7 6 6 6 6 7 8 9 10 11 11 12 12 13 14 15 15 15 15 15 14 14 13 13 13 13 14 14 14 14 13 13 13 12 12 12 13 13 13 13
5 5 6 4 5 7 7 6 6 6 4 5 6 6 6 5 6 7 7 7 7 7 7 8 9 9 8 7 7 7 7 7 7 7 6 6 6 6 6 6 6 6 6 6 6 6 6 6 6 5 6 7 9 9 10 10 11 12 13 13 13 14 14 14 13 13 13 13 13 13 13 13 13 13 13 13 12 12 12 12 12 12 12 12 13 13
4 4 5 5 4 6 7 5 6 6 7 9 9 8 8 7 6 6 7 8 8 7 7 8 8 7 7 7 6 6 7 7 7 7 7 7 7 6 6 6 6 6 6 6 6 6 5 5 5 5 6 8 8 9 9 10 11 12 12 12 12 13 12 12 12 12 12 12 12 12 12 12 12 12 12 12 12 11 11 11 11 11 12 12 13 13
5 4 4 4 4 6 5 4 5 8 10 11 9 8 8 7 5 5 6 8 8 6 6 6 6 6 6 6 5 5 5 5 6 7 7 7 7 7 6 6 6 6 6 6 5 5 5 5 4 5 7 8 8 9 9 10 11 11 11 11 11 11 11 11 11 12 12 12 12 11 11 10 11 11 11 11 11 11 11 11 11 11 12 12 13 13
7 6 5 4 4 5 5 4 7 9 11 10 9 8 7 6 5 5 6 8 8 7 6 5 5 6 5 4 4 4 4 4 5 7 7 7 7 7 7 6 6 6 6 6 5 5 5 4 5 6 7 7 8 9 9 9 10 10 10 10 10 10 10 11 11 11 11 11 11 11 10 10 10 10 10 10 11 11 11 11 11 11 12 12 13 13
8 8 6 5 5 6 5 6 7 8 9 10 10 9 8 7 7 6 7 8 8 7 6 5 5 5 4 3 3 3 3 4 5 7 7 6 6 7 7 6 6 6 6 6 5 5 5 5 5 6 7 7 8 8 8 9 9 9 9 9 9 9 10 10 10 10 10 10 10 10 10 10 10 10 10 10 11 11 11 11 11 11 11 12 12 13
9 9 9 7 7 6 5 5 5 6 8 10 11 11 9 7 7 6 6 9 9 7 6 6 5 5 4 3 3 3 4 5 7 8 7 6 6 6 6 6 6 6 5 5 4 4 5 5 5 6 6 7 7 8 8 7 8 8 8 8 8 9 9 9 9 9 10 10 10 10 9 10 10 10 10 10 11 11 11 11 11 11 12 12 13 13
9 10 9 8 8 8 6 6 6 7 8 10 11 11 9 7 7 6 6 9 9 7 6 5 4 4 4 4 4 5 6 7 8 8 6 6 6 6 6 6 6 5 5 5 4 4 5 5 5 5 6 6 6 7 6 6 7 7 7 7 8 8 9 9 9 9 9 9 9 9 9 9 10 10 10 10 11 11 11 11 11 12 12 12 13 14
10 10 10 10 9 9 8 8 8 8 8 9 10 10 8 7 6 5 7 9 9 6 6 6 5 5 5 5 5 6 7 8 8 7 6 6 7 7 6 6 6 5 5 4 4 4 4 5 5 5 5 6 5 5 5 5 6 6 6 7 7 8 8 8 9 9 9 9 9 9 9 9 10 10 10 10 11 11 11 11 12 12 12 12 13 14
12 12 12 12 11 10 9 9 9 9 9 9 9 9 8 6 5 6 8 10 8 6 7 6 5 5 6 6 6 7 8 8 8 6 6 6 6 6 6 6 6 5 4 4 4 4 4 5 5 5 5 5 4 4 4 4 5 5 6 6 6 7 8 8 8 9 8 9 9 9 9 9 10 10 10 11 11 11 11 11 12 12 12 13 13 14
11 12 12 12 12 11 10 9 8 8 9 8 8 7 6 6 7 8 9 9 7 7 6 6 6 6 6 6 7 7 7 7 6 5 5 6 6 5 5 5 5 4 4 3 4 4 5 5 5 5 4 4 3 3 3 3 4 5 5 5 6 7 7 8 8 8 9 9 9 9 9 9 10 10 11 11 11 11 11 12 12 13 13 13 14 14
10 10 12 13 12 11 10 9 8 8 9 8 7 6 7 7 8 9 8 7 7 7 6 6 7 7 7 6 7 6 6 5 5 5 5 5 5 5 5 5 4 4 4 4 4 5 5 4 4 4 3 2 2 2 2 3 4 4 4 4 5 6 7 7 7 8 9 9 9 9 9 10 10 10 11 11 11 12 12 12 13 13 14 14 14 15
8 8 10 12 11 10 10 10 9 9 9 8 7 7 8 9 9 8 6 6 6 6 6 6 7 7 7 6 5 5 5 4 5 5 5 5 5 5 5 4 4 4 4 4 4 5 5 4 3 3 2 2 2 2 2 2 3 4 4 4 4 5 6 6 7 8 9 9 9 9 10 10 10 11 11 11 12 12 13 13 14 14 14 14 15 15
8 8 8 9 10 10 10 10 10 9 8 8 8 8 8 8 8 8 6 6 6 7 7 7 6 7 7 6 5 5 5 5 5 5 5 5 5 5 4 4 4 4 4 4 4 4 4 3 2 2 2 2 1 1 1 2 3 3 3 3 4 5 5 6 7 7 8 9 9 9 10 10 11 11 11 12 12 13 13 14 14 14 15 15 15 15
8 8 7 7 8 9 8 8 8 8 7 7 8 8 8 7 7 7 6 6 6 7 7 7 7 7 6 6 5 4 5 5 5 5 5 5 5 5 4 5 5 5 4 4 4 4 3 2 2 2 2 2 2 2 2 2 2 3 3 3 3 4 5 6 6 7 8 9 9 9 10 11 11 11 12 12 13 13 13 14 14 15 15 15 15 15
8 8 7 7 7 7 8 8 9 8 8 7 7 7 7 6 6 6 6 6 7 7 7 7 7 6 6 6 5 4 4 5 4 4 5 4 5 5 5 5 5 5 5 4 4 3 3 2 2 3 3 3 2 2 2 2 2 2 3 3 3 4 5 5 6 7 8 9 9 10 10 11 11 12 12 13 13 14 14 14 14 15 15 15 15 15
8 7 8 8 7 8 9 10 9 8 7 7 7 7 6 5 5 5 5 5 6 6 6 7 6 6 6 6 5 4 4 5 4 4 4 5 5 5 5 5 5 5 4 4 3 3 3 3 3 3 3 3 3 3 2 2 2 3 3 3 4 4 5 5 6 7 8 9 10 10 10 10 11 12 13 13 14 14 14 15 15 15 15 16 15 15
7 7 8 8 7 8 9 10 9 7 7 7 7 7 7 6 5 5 5 5 5 5 6 6 6 6 6 5 5 4 4 5 5 4 4 4 4 5 5 5 5 4 4 4 4 4 3 3 3 3 3 3 3 3 2 2 2 3 3 4 4 4 5 5 6 7 8 9 10 10 10 11 11 12 13 14 14 14 15 15 15 15 16 15 15 15
6 7 7 7 7 8 9 10 9 8 8 9 8 8 8 7 6 5 6 6 5 5 5 5 6 6 5 5 5 4 4 4 5 4 4 4 5 5 5 5 4 4 4 4 4 4 4 4 4 4 4 4 3 3 3 3 3 3 3 4 4 5 5 6 6 7 8 9 9 10 11 11 12 13 13 14 15 15 15 16 16 16 16 15 15 15
7 8 8 7 8 9 10 10 9 8 8 9 9 8 8 8 7 6 6 6 6 6 6 5 5 5 5 5 5 4 3 4 4 5 4 5 5 5 5 5 5 4 4 4 5 5 5 5 4 4 4 4 3 3 3 4 3 3 3 4 4 5 6 6 6 7 8 8 9 10 11 11 12 13 13 14 15 15 16 16 16 16 15 15 15 15
Wind_Direction
222 227 228 221 220 221 228 234 237 247 256 269 289 300 301 304 303 293 283 259 222 228 252 247 262 284 298 321 326 312 330 293 299 334 342 345 352 354 10 12 15 20 19 22 23 23 23 20 17 16 16 16 13 8 5 4 1 359 357 353 349 343 337 333 325 319 318 318 318 319 320 323 327 327 324 323 321 320 321 321 320 320 320 318 318 319
228 230 226 219 221 222 226 233 237 248 260 271 283 292 298 302 302 301 285 251 222 231 255 252 260 273 287 310 316 294 277 268 262 277 295 302 321 332 348 351 355 5 10 16 18 17 16 14 14 12 9 10 10 8 5 3 359 355 353 348 341 335 330 325 319 315 317 316 315 315 319 322 325 325 324 324 321 319 319 320 320 320 320 320 319 318
233 233 226 219 222 224 228 232 235 245 257 269 277 287 298 302 304 312 309 258 224 237 256 248 249 271 290 300 296 273 263 263 254 256 271 280 294 307 321 329 337 353 359 4 8 7 5 6 7 4 2 1 2 2 0 358 354 349 344 337 332 330 326 321 316 314 316 317 316 316 318 319 321 323 323 323 322 320 320 320 321 321 321 321 320 319
232 229 223 219 219 222 232 235 236 249 259 266 274 286 296 300 301 302 304 279 241 243 246 238 253 278 293 295 284 268 268 278 272 266 270 270 275 292 309 314 320 337 347 350 354 356 357 357 356 355 355 355 355 354 353 351 348 343 336 329 326 326 323 319 316 313 314 316 316 317 318 318 319 320 320 319 320 321 321 320 320 320 320 319 319 319
230 225 222 225 223 221 232 241 243 252 263 266 263 273 288 298 303 292 284 269 262 267 244 228 270 282 279 283 281 274 275 284 284 276 273 269 269 287 308 306 308 322 329 335 342 345 347 347 346 345 346 347 349 349 348 347 344 340 335 329 324 321 319 316 312 309 309 311 312 313 315 316 317 317 317 318 320 321 321 319 317 317 318 318 319 320
230 224 224 232 233 228 233 241 240 241 258 267 259 262 277 291 309 296 261 244 252 263 249 235 270 281 277 277 276 278 280 279 283 278 270 269 268 276 294 299 304 314 319 325 331 335 339 341 341 338 337 338 342 345 345 344 341 338 335 331 325 320 316 312 308 305 305 307 308 309 311 313 314 316 317 319 321 321 318 316 314 315 317 318 319 320
228 224 222 228 234 235 237 239 236 234 245 259 257 259 272 282 284 243 237 245 245 252 253 245 254 278 288 280 270 272 277 279 284 279 267 265 266 269 280 292 299 305 311 317 323 326 330 334 336 333 330 330 333 339 341 341 338 336 334 331 326 320 315 311 306 305 306 307 308 309 310 312 314 315 316 317 319 318 314 311 311 313 315 317 318 318
225 225 226 228 231 235 236 235 234 231 232 248 254 255 264 265 249 235 238 253 255 258 269 259 254 275 289 283 273 270 276 283 283 278 271 262 261 267 275 284 291 296 300 306 313 317 320 325 328 327 326 326 328 332 336 337 336 333 332 329 325 319 314 311 308 307 309 309 310 311 312 313 314 315 315 316 316 315 311 309 309 310 313 316 317 318
225 224 227 229 230 232 231 228 229 228 234 247 250 253 264 261 252 249 252 261 261 260 265 260 256 274 286 284 289 288 280 282 276 269 269 260 258 268 276 282 288 292 295 299 304 309 312 318 321 323 325 325 325 327 330 332 331 329 326 325 324 319 312 309 308 308 311 313 314 315 314 314 314 314 314 314 313 312 310 309 309 310 311 314 316 318
228 224 225 226 228 229 226 225 226 226 235 244 243 259 277 275 270 267 262 259 261 262 260 254 249 266 286 283 284 291 285 284 282 274 270 263 262 272 277 280 285 288 292 295 298 302 307 312 316 320 324 323 322 323 324 325 326 325 322 322 324 321 314 309 307 308 313 315 316 316 315 314 312 312 312 312 311 311 310 310 311 312 312 313 315 316
233 229 227 227 228 226 223 226 228 226 233 237 240 259 276 281 276 269 261 253 259 268 266 258 249 257 287 286 275 277 285 294 301 293 280 269 267 271 272 272 275 280 286 290 294 298 302 307 311 318 320 319 318 317 318 320 323 323 321 321 322 322 318 314 311 310 314 317 318 318 317 315 312 311 311 311 311 310 311 312 313 312 313 313 314 314
243 235 231 232 231 225 223 230 232 231 234 235 240 251 260 271 272 268 269 262 259 265 267 267 257 250 268 281 280 282 290 300 301 291 278 268 265 265 268 270 269 274 281 286 290 293 296 300 305 312 315 314 313 312 313 317 321 322 321 322 323 323 320 317 315 314 316 318 320 321 321 318 315 313 312 312 311 310 311 313 313 313 313 313 314 313
244 236 235 236 234 225 223 231 235 238 238 232 237 247 252 260 263 263 266 263 261 263 267 269 258 250 260 270 280 286 290 294 292 288 274 261 259 261 268 271 268 272 279 283 286 286 288 291 296 304 308 308 307 307 310 315 320 321 320 322 323 323 321 319 318 318 318 319 320 322 322 320 317 314 312 311 311 311 312 313 314 314 314 314 314 313
246 246 243 238 237 228 222 227 232 235 234 228 232 239 240 244 253 260 263 268 269 265 270 270 254 256 270 275 279 282 285 287 288 289 279 264 258 260 269 275 272 273 279 282 281 281 282 284 288 295 301 303 304 307 313 318 318 316 317 320 321 322 321 319 319 320 321 322 322 322 322 320 317 314 312 311 311 312 312 313 314 314 314 313 313 313
241 252 243 234 236 228 222 225 225 227 231 231 232 234 237 238 244 255 256 260 266 263 268 267 255 259 269 277 281 283 288 288 283 282 283 275 265 264 273 276 272 274 278 280 277 276 278 277 279 290 299 302 304 309 316 316 311 307 311 318 319 320 319 317 319 321 322 322 321 321 321 319 316 314 313 312 312 312 312 313 313 313 313 312 312 313
239 249 246 240 236 224 221 224 222 223 232 236 233 234 241 241 243 256 257 254 257 261 262 259 261 265 266 276 285 290 298 295 280 273 280 279 268 265 270 271 271 273 275 275 274 274 275 271 273 287 297 299 298 304 311 310 305 298 302 315 317 316 317 318 321 322 321 320 320 320 319 318 317 316 314 312 312 312 312 312 312 311 311 310 311 312
237 247 252 252 241 225 218 218 218 220 225 233 234 234 240 242 243 254 262 263 260 260 262 261 266 274 277 282 285 289 299 295 281 276 281 277 269 267 271 270 271 272 272 273 273 275 272 265 269 287 293 290 290 297 303 303 300 295 301 313 315 314 317 320 321 320 318 318 320 320 319 319 319 317 314 312 312 312 312 312 311 309 309 309 310 310
233 247 255 248 241 234 221 214 221 223 220 229 237 234 239 246 250 251 257 269 267 261 264 264 265 271 275 280 283 288 289 281 274 276 279 276 272 274 276 271 270 272 273 275 275 278 273 261 270 288 286 284 286 292 298 300 300 299 306 313 314 314 317 317 317 316 316 318 319 320 320 319 318 317 315 313 312 312 311 311 310 309 309 309 309 309
229 244 257 246 234 236 225 216 225 231 227 230 233 232 237 244 251 252 251 259 263 265 271 272 271 269 267 270 278 282 277 269 268 269 271 273 275 279 276 268 268 272 277 278 278 281 274 261 275 287 285 289 290 289 296 302 302 303 310 316 317 317 316 315 315 316 317 318 319 319 319 318 317 317 316 315 314 313 313 313 312 311 310 309 310 310
226 235 251 248 232 228 223 216 219 227 232 234 233 237 243 243 246 249 249 252 254 259 269 277 279 274 268 270 270 269 268 266 266 266 269 272 275 279 273 265 268 273 279 281 281 283 277 268 278 284 285 295 293 287 294 301 301 305 313 318 319 317 316 315 316 317 317 317 317 317 317 317 318 317 317 316 316 315 315 314 313 313 312 312 312 312
228 231 238 247 244 228 220 217 214 217 224 228 231 238 244 245 246 248 251 254 252 252 258 269 277 276 275 276 270 267 268 267 266 268 271 272 272 274 271 267 271 279 283 284 285 288 284 280 285 285 286 291 288 288 295 296 300 308 314 318 319 317 316 316 315 316 316 316 316 316 317 318 318 318 318 318 318 318 318 317 316 315 314 314 314 314
223 225 230 242 242 225 223 221 213 213 218 222 229 234 237 240 242 245 252 255 253 252 253 259 272 278 282 284 279 275 273 269 266 267 269 269 269 272 272 271 276 283 285 285 290 294 292 289 289 289 289 287 284 292 298 296 304 312 315 317 318 316 316 315 315 315 315 315 316 317 318 318 319 319 320 321 321 321 320 319 318 316 315 315 314 314
220 222 228 237 233 225 233 230 216 217 222 225 232 234 235 240 241 240 248 251 249 256 261 266 276 281 283 287 284 277 270 262 260 264 269 270 269 273 276 277 281 285 286 288 297 302 299 296 294 291 293 292 291 296 299 301 307 312 314 317 316 315 314 313 314 314 314 316 317 318 319 319 320 321 322 323 324 323 323 321 318 317 316 316 315 315
218 218 222 234 240 238 244 237 222 223 223 226 236 236 234 242 245 242 244 245 243 249 260 272 279 281 285 290 287 274 259 250 253 266 276 275 277 281 282 283 283 283 286 293 303 307 300 294 296 294 296 300 299 296 299 304 308 310 313 314 313 312 312 313 314 314 315 318 319 320 321 321 322 323 324 325 325 325 324 323 321 320 319 319 319 319
212 212 208 219 237 241 243 240 231 229 222 224 237 239 236 238 239 240 245 247 247 248 253 265 273 279 287 291 287 274 261 258 266 280 287 284 287 289 285 286 286 287 294 302 309 309 300 294 296 298 303 307 304 301 303 305 306 308 311 311 311 312 313 313 314 315 318 320 321 322 323 323 324 325 326 327 327 327 326 326 327 327 326 326 326 327
206 212 208 207 213 217 221 228 229 226 222 225 232 237 237 230 224 229 237 244 249 248 249 257 266 278 287 284 279 274 271 275 279 285 291 289 289 289 288 291 293 294 299 304 308 307 303 302 303 303 310 310 305 306 308 307 309 311 312 312 313 314 315 316 317 319 321 322 323 324 324 325 326 326 327 328 329 329 330 332 335 335 336 335 335 335
202 216 215 207 207 210 213 223 228 221 218 227 233 239 240 231 227 228 232 241 244 240 250 259 261 273 278 269 268 271 270 275 278 281 285 285 284 289 292 294 294 293 295 300 305 305 305 311 310 305 311 309 304 306 307 309 313 314 313 315 316 316 317 319 320 322 322 322 323 324 325 326 327 328 329 330 331 333 336 339 341 341 341 341 341 342
198 218 218 208 213 221 219 226 234 223 216 224 231 239 241 236 233 232 238 248 243 236 259 266 260 266 274 269 270 274 273 275 279 278 278 278 279 285 291 293 293 294 297 301 302 300 304 311 310 307 311 310 306 306 306 310 313 313 313 315 316 318 320 322 323 323 322 322 323 325 326 327 329 331 333 334 336 338 341 342 343 343 343 344 345 346
195 219 221 213 227 241 234 236 237 221 217 224 226 234 241 239 235 235 244 253 245 244 266 267 258 273 286 284 277 275 274 276 279 278 276 277 279 280 284 290 291 293 299 302 300 298 300 305 307 306 307 307 308 310 310 312 313 313 314 316 319 322 323 323 322 322 322 323 325 326 328 330 333 335 337 339 340 342 344 344 344 344 345 346 348 349
200 223 226 214 227 253 254 250 241 222 217 225 229 233 236 235 234 235 241 248 250 267 277 273 273 290 293 287 281 278 277 278 278 275 273 276 278 277 279 285 288 289 294 296 298 300 301 302 303 303 302 303 306 308 310 312 313 315 317 319 321 323 322 321 322 323 324 326 327 329 331 334 336 338 340 341 342 344 345 347 347 348 348 349 350 351
210 222 230 217 221 248 256 251 244 227 208 210 226 238 238 238 242 247 251 257 269 286 288 283 285 291 289 285 285 280 274 276 274 269 273 277 276 275 276 281 283 282 286 289 291 296 299 299 300 299 298 300 304 307 310 313 316 318 320 321 322 322 321 322 324 326 327 328 330 332 334 336 337 339 340 342 344 345 347 348 350 351 352 352 352 352
221 218 229 223 219 239 245 238 238 228 201 203 233 250 251 246 244 251 259 266 270 277 286 287 282 281 282 283 284 275 267 271 268 265 272 276 273 272 272 273 275 275 279 284 286 289 292 294 295 293 293 299 303 308 312 315 318 321 321 322 321 322 324 325 327 329 331 332 333 334 334 335 337 339 341 343 346 349 351 353 354 356 357 357 356 356
223 211 223 229 221 234 242 235 227 221 213 227 238 241 246 250 250 258 270 279 279 275 275 276 276 278 279 279 280 275 269 266 262 262 268 266 265 268 268 266 267 271 278 284 284 285 286 287 287 286 292 302 307 311 316 319 321 322 322 323 324 326 327 329 331 334 335 335 334 333 334 336 338 341 344 347 351 354 356 358 360 1 1 1 1 1
230 212 225 235 219 226 242 236 221 225 231 234 236 238 244 251 256 264 275 283 286 281 273 275 278 278 277 277 275 271 268 265 265 269 269 262 259 264 266 265 267 272 281 287 286 285 284 282 283 288 297 307 312 316 321 322 322 323 324 326 328 330 331 333 336 338 338 337 335 335 335 338 341 345 348 350 354 356 358 0 1 2 1 1 1 1
233 224 235 245 213 215 234 233 222 236 240 239 246 252 249 250 254 265 280 281 277 277 277 279 277 272 275 282 277 268 267 268 274 278 272 264 264 266 266 267 270 276 282 286 285 283 279 275 280 292 303 311 317 320 321 322 324 326 329 331 333 334 336 338 340 340 340 341 342 342 342 342 344 348 350 352 355 356 357 358 358 359 358 358 358 358
226 229 237 243 223 218 229 229 231 243 246 244 253 258 250 253 260 270 284 279 269 271 273 269 271 276 283 284 270 264 267 274 288 291 280 269 269 270 270 270 273 278 277 274 274 275 270 269 279 291 303 313 320 321 322 324 327 330 333 336 338 340 342 342 343 344 345 347 349 350 350 350 351 353 354 355 356 355 354 354 355 355 355 355 356 356
224 229 231 233 232 224 224 235 245 257 253 243 245 249 247 251 257 261 274 275 271 275 271 261 269 282 285 276 260 258 270 285 301 302 290 279 277 278 278 277 277 278 274 270 270 268 263 270 283 294 306 316 321 322 325 328 332 335 339 342 344 346 347 347 348 349 351 353 356 358 359 359 359 358 358 357 357 356 355 354 354 353 353 353 354 355
230 232 227 226 233 226 221 241 255 260 254 244 241 246 250 252 254 260 276 280 276 270 260 257 265 271 271 265 252 255 275 289 296 298 292 285 285 285 283 281 280 279 275 270 267 262 261 271 288 302 311 318 322 324 329 334 336 340 345 347 348 349 351 351 351 353 355 357 359 1 3 3 2 1 359 358 358 358 358 358 356 354 353 352 352 353
237 238 230 226 232 228 223 234 239 242 249 245 241 249 255 253 255 272 290 287 276 258 250 257 261 259 255 247 248 266 285 291 291 291 287 282 283 282 277 277 282 281 276 271 260 250 255 274 297 309 313 319 323 327 334 339 341 345 349 351 352 353 354 354 355 357 359 359 359 0 2 2 2 1 360 358 358 358 359 358 356 354 353 352 351 351
242 242 234 228 230 231 229 239 247 248 250 245 244 250 250 248 260 281 289 284 273 253 246 248 245 250 252 250 261 276 286 287 283 279 276 277 281 280 272 270 273 271 266 262 252 248 262 284 300 306 309 317 323 330 337 341 344 351 354 356 358 1 2 2 3 3 2 0 1 1 1 1 2 1 0 359 358 358 357 357 355 354 353 352 351 351
240 238 233 229 232 233 231 240 254 258 251 245 244 243 238 249 273 276 272 274 267 250 247 244 239 243 246 252 269 280 287 290 282 268 269 278 282 282 275 268 265 260 250 239 238 253 275 288 293 298 307 315 324 335 340 341 348 357 360 2 7 11 11 11 11 10 7 6 7 6 3 2 2 0 360 359 357 357 356 356 355 354 353 352 351 350
236 234 232 230 232 234 233 239 255 264 255 242 236 237 239 254 268 267 271 273 256 240 246 249 243 245 250 261 276 282 286 288 276 261 269 278 279 279 275 265 259 253 243 236 244 262 275 282 288 296 305 313 326 335 337 342 354 2 6 10 15 19 19 17 16 14 11 11 10 7 5 2 360 359 359 357 356 354 353 353 353 351 351 350 348 348
232 232 233 230 229 232 236 242 252 260 253 237 227 237 252 261 262 263 274 276 255 240 245 252 250 252 257 270 281 282 279 277 269 265 270 272 272 271 265 255 247 238 236 245 256 263 269 276 282 286 294 309 325 331 334 344 356 5 12 15 19 23 21 18 16 14 11 10 8 5 3 0 357 357 356 355 354 352 350 349 348 347 346 345 344 344
230 230 231 230 229 229 233 238 243 247 249 244 238 246 258 267 267 262 262 264 255 246 248 256 261 261 258 262 269 268 264 263 263 263 262 261 262 258 248 239 231 227 234 247 256 260 264 268 270 273 284 301 311 316 323 339 354 6 12 12 18 22 17 13 12 9 5 4 3 1 0 358 357 356 354 353 352 350 347 346 345 344 344 343 342 341
230 227 222 223 227 226 226 233 240 245 249 248 249 256 263 270 271 264 253 245 244 248 253 257 262 265 263 259 257 258 259 260 258 257 254 252 249 243 235 228 222 226 241 252 256 256 255 251 250 255 264 271 271 279 307 328 347 2 6 5 12 15 9 4 4 2 359 357 357 356 356 355 355 354 353 351 350 348 346 344 342 342 342 342 341 340
233 227 219 221 229 231 232 241 249 253 252 248 252 262 268 268 267 264 256 245 243 251 258 258 257 260 260 256 255 258 260 257 253 253 250 245 238 230 223 220 225 235 246 250 249 247 241 237 241 240 237 239 242 255 291 316 337 354 357 358 2 2 357 356 358 358 356 354 352 351 351 351 351 351 350 349 347 346 344 342 341 340 340 340 340 339
238 229 226 231 237 236 241 254 258 252 247 246 251 262 267 268 268 267 260 252 251 254 259 261 261 260 258 256 258 260 258 252 248 247 245 239 230 222 218 221 231 238 238 236 236 233 227 229 236 231 224 223 231 253 284 306 325 341 347 349 349 347 346 349 354 355 354 352 350 349 349 349 349 349 348 347 345 343 342 340 339 338 337 337 337 337
240 235 232 236 241 240 243 252 253 244 241 244 247 251 253 254 262 267 264 260 259 260 263 266 263 258 258 263 265 259 253 249 243 237 237 234 225 221 222 225 229 230 231 234 232 228 227 230 229 224 221 222 232 253 276 294 312 328 338 340 339 338 339 342 347 349 351 351 350 349 349 349 349 349 348 347 346 345 343 341 340 338 337 336 335 335
237 239 235 234 241 245 246 250 248 244 248 254 252 250 248 246 251 259 262 260 258 260 265 268 267 263 261 263 266 260 249 245 239 229 227 228 225 222 222 221 220 220 226 235 236 232 231 232 226 220 222 230 241 255 272 287 301 316 328 333 334 334 335 336 341 345 348 349 350 351 350 349 350 350 350 349 348 348 346 344 341 339 337 336 336 334
234 236 236 235 239 244 243 240 238 237 244 248 248 246 245 246 250 254 256 257 256 257 261 264 269 271 267 261 262 258 246 241 236 225 220 223 222 220 218 217 219 224 231 238 240 236 233 232 227 222 226 238 250 260 273 283 290 303 318 326 331 332 330 330 335 339 342 345 348 349 349 349 349 350 350 350 349 348 346 345 343 340 337 337 336 335
230 228 229 228 234 240 237 229 227 234 239 240 240 242 244 249 252 250 250 253 253 254 255 253 255 264 268 265 260 250 239 236 228 220 221 225 221 217 215 215 218 225 233 239 239 235 233 232 228 225 230 242 256 266 273 277 277 287 306 319 326 329 329 328 329 331 334 338 341 344 345 346 347 347 348 349 348 347 346 346 345 344 342 339 338 338